Location: Coopersdale
(40.3556°N, 78.9372°W)
Time: 00:46:24
(UTC+00:00)

Transit 4A - Pass Details

Date: 25 January 2021
Orbit: 867 x 978 km, 66.8° (Epoch: 07 March)

Event Time Altitude Azimuth Distance (km) Brightness Sun altitude
Rises 07:50:26 0° 337° (NNW) 3,629 - -52.7°
Reaches altitude 10° 07:53:25 10° 349° (N) 2,663 - -52.2°
Maximum altitude 07:58:41 28° 47° (NE) 1,649 - -51.3°
Drops below altitude 10° 08:03:48 10° 106° (ESE) 2,585 - -50.4°
Exits shadow 08:06:04 - 116° (ESE) 3,313 11.1 -50.0°
Sets 08:06:38 0° 118° (ESE) 3,504 11.3 -49.9°
